SCP
0 0 0 0 0 0 0 0 0 0 0 0 0 0 0 0 0 0 0 0 0 0 0 0 0 0 0 0 0 0 0 0 0 0 0 0 0 0 0 0 0 0 0 0 0 0 0 0 0
0 0 0 0 0 0 0 0 0 0 0 0 0 0 0 0 0 0 0 0 0 0 0 0 0 0 0 0 0 0 0 0 0 0 0 0 0 0 0 0 0 0 0 0 0 0 0 0 0
0 0 0 0 0 0 0 0 0 0 0 0 0 0 0 0 0 0 0 0 0 0 0 0 0 0 0 0 0 0 0 0 0 0 0 0 0 0 0 0 0 0 0 0 0 0 0 0 0
0 0 0 0 0 0 0 0 0 0 0 0 0 0 0 0 0 0 0 0 0 0 0 0 0 0 0 0 0 0 0 0 0 0 0 0 0 0 0 0 0 0 0 0 0 0 0 0 0
0 0 0 0 0 0 0 0 0 0 0 0 0 0 0 0 0 0 0 0 0 0 0 0 0 0 0 0 0 0 0 0 0 0 0 0 0 0 0 0 0 0 0 0 0 0 0 0 0
0 0 0 0 0 0 0 0 0 0 0 0 0 0 0 0 0 0 0 0 0 0 0 0 0 0 0 0 0 0 0 0 0 0 0 0 0 0 0 0 0 0 0 0 0 0 0 0 0
0 0 0 0 0 0 0 0 0 0 0 0 0 0 0 0 0 0 0 0 0 0 0 0 0 0 0 0 0 0 0 0 0 0 0 0 0 0 0 0 0 0 0 0 0 0 0 0 0
0 0 0 0 0 0 0 0 0 0 0 0 0 0 0 0 0 0 0 0 0 0 0 0 0 0 0 0 0 0 0 0 0 0 0 0 0 0 0 0 0 0 0 0 0 0 0 0 0
0 0 0 0 0 0 0 0 0 0 0 0 0 0 0 0 0 0 0 0 0 0 0 0 0 0 0 0 0 0 0 0 0 0 0 0 0 0 0 0 0 0 0 0 0 0 0 0 0
0 0 0 0 0 0 0 0 0 0 0 0 0 0 0 0 0 0 0 0 0 0 0 0 0 0 0 0 0 0 0 0 0 0 0 0 0 0 0 0 0 0 0 0 0 0 0 0 0
0 0 0 0 0 0 0 0 0 0 0 0 0 0 0 0 0 0 0 0 0 0 0 0 0 0 0 0 0 0 0 0 0 0 0 0 0 0 0 0 0 0 0 0 0 0 0 0 0
0 0 0 0 0 0 0 0 0 0 0 0 0 0 0 0 0 0 0 0 0 0 0 0 0 0 0 0 0 0 0 0 0 0 0 0 0 0 0 0 0 0 0 0 0 0 0 0 0
0 0 0 0 0 0 0 0 0 0 0 0 0 0 0 0 0 0 0 0 0 0 0 0 0 0 0 0 0 0 0 0 0 0 0 0 0 0 0 0 0 0 0 0 0 0 0 0 0
0 0 0 0 0 0 0 0 0 0 0 0 0 0 0 0 0 0 0 0 0 0 0 0 0 0 0 0 0 0 0 0 -0 -0 0 0 0 0 0 0 0 0 0 0 0 0 0 0 0
0 0 0 0 0 0 0 0 0 0 0 0 0 0 0 0 0 0 0 0 0 0 0 0 0 0 0 0 0 0 0 0 0 0 0 0 0 0 0 0 0 0 0 0 0 0 0 0 0
0 0 0 0 0 0 0 0 0 0 0 0 0 0 0 0 0 0 0 0 0 0 0 0 0 0 0 0 0 0 0 0 0 0 0 0 0 0 0 0 0 0 0 0 0 0 0 0 0
0 0 0 0 0 0 0 0 0 0 0 0 0 0 0 0 -0 -0 0 0 0 0 0 0 0 0 0 0 0 0 0 0 0 0 0 0 0 0 0 0 0 0 0 0 0 0 0 0 0
0 0 0 0 0 0 0 0 0 0 0 0 0 0 0 0 0 0 0 0 0 0 0 0 0 0 0 0 0 0 0 0 0 0 0 0 0 0 0 0 0 0 0 0 0 0 0 0 0
0 0 0 0 0 0 0 0 0 0 0 0 0 0 0 0 0 0 0 0 0 0 0 0 0 0 0 0 0 0 0 0 0 0 0 0 0 0 0 0 0 0 0 0 0 0 0 0 0
0 0 0 0 0 0 0 0 0 0 0 0 0 0 0 0 0 0 0 0 0 0 0 0 0 0 0 0 0 0 0 0 0 0 0 0 0 0 0 0 0 0 0 0 0 0 0 0 0
0 0 0 0 0 0 0 0 0 0 0 0 0 0 0 0 0 0 0 0 0 0 0 0 0 0 0 0 0 0 0 0 0 0 0 0 0 0 0 0 0 0 0 0 0 0 0 0 0
0 0 0 0 0 0 0 0 0 0 0 0 0 0 0 0 0 0 0 0 0 0 0 0 0 0 0 0 0 0 0 0 0 0 0 0 0 0 0 0 0 0 0 0 0 0 0 0 0
0 0 0 0 0 0 0 0 0 0 0 0 0 0 0 0 0 0 0 0 0 0 0 0 0 0 0 0 0 0 0 0 0 0 0 0 0 0 0 0 0 0 0 0 0 0 0 0 0
0 0 0 0 0 0 0 0 0 0 0 0 0 0 0 0 0 0 0 0 0 0 0 0 0 0 0 0 0 0 0 0 0 0 0 0 0 0 0 0 0 0 0 0 0 0 0 0 0
0 0 0 0 0 0 0 0 0 0 0 0 0 0 0 0 0 0 0 0 0 0 0 0 0 0 0 0 0 0 0 0 0 0 0 0 0 0 0 0 0 0 0 0 0 0 0 0 0
0 0 0 0 0 0 0 0 0 0 0 0 0 0 0 0 0 0 0 0 0 0 0 0 0 0 0 0 0 0 0 0 0 0 0 0 0 0 0 0 0 0 0 0 0 0 0 0 0
0 0 0 0 0 0 0 0 0 0 0 0 0 0 0 0 0 0 0 0 0 0 0 0 0 0 0 0 0 0 0 0 0 0 0 0 0 0 0 0 0 0 0 0 0 0 0 0 0
0 0 0 0 0 0 0 0 0 0 0 0 0 0 0 0 0 0 0 0 0 0 0 0 0 0 0 0 0 0 0 0 0 0 0 0 0 0 0 0 0 0 0 0 0 0 0 0 0
0 0 0 0 0 0 0 0 0 0 0 0 0 0 0 0 0 0 0 0 0 0 0 0 0 0 0 0 0 0 0 0 0 0 0 0 0 0 0 0 0 0 0 0 0 0 0 0 0
0 0 0 0 0 0 0 0 0 0 0 0 0 0 0 0 0 0 0 0 0 0 0 0 0 0 0 0 0 0 0 0 0 0 0 0 0 0 0 0 0 0 0 0 0 0 0 0 0
Wind_Speed
3 4 3 4 6 6 3 2 1 2 3 2 4 6 6 4 2 2 1 1 1 1 2 2 5 6 7 8 8 8 9 9 10 10 10 10 10 10 10 10 10 10 10 10 10 10 10 10 10
2 2 4 5 6 4 2 2 1 1 3 3 4 5 5 4 2 2 1 0 1 1 2 3 5 7 8 8 8 8 9 9 9 9 9 10 10 10 10 10 10 10 10 11 10 10 10 11 10
2 3 4 5 4 3 2 1 2 3 3 2 3 4 3 2 1 1 1 2 2 2 2 3 6 6 7 8 8 8 9 9 9 9 9 9 10 11 10 10 11 10 11 11 10 10 10 10 10
3 4 5 6 4 1 2 1 2 3 3 4 3 4 3 2 1 2 3 3 3 2 2 2 5 6 6 7 7 8 8 8 9 9 9 9 10 10 10 10 10 10 11 11 10 10 10 10 10
4 5 6 4 3 2 1 1 2 3 3 3 4 4 2 3 3 4 4 3 3 2 2 2 5 5 6 6 7 7 7 7 8 9 9 9 10 10 10 10 10 10 10 10 10 10 10 10 10
5 5 5 3 2 2 1 2 3 4 3 2 3 3 1 2 3 3 3 3 2 2 2 3 4 4 5 6 7 7 7 8 8 9 9 9 9 9 9 9 10 10 10 10 10 10 10 10 10
5 5 4 3 1 2 1 2 3 3 3 2 3 4 1 0 1 3 3 2 2 2 3 3 3 4 5 5 6 7 7 8 8 9 9 8 8 9 9 9 9 9 10 10 10 10 10 10 10
4 5 4 2 2 0 1 2 2 3 2 2 3 5 3 3 2 4 4 3 3 2 2 3 3 3 3 4 5 6 7 7 8 8 8 8 8 8 8 8 8 9 10 10 10 10 11 11 11
4 6 2 3 3 1 1 3 2 2 4 2 1 2 2 5 6 5 3 3 2 2 2 2 2 3 3 3 4 5 6 7 7 7 8 7 4 4 5 7 8 9 10 10 10 11 12 11 10
5 4 2 3 4 3 2 2 3 3 3 2 3 3 5 6 6 5 3 2 1 0 1 1 2 2 2 2 3 3 4 4 4 4 4 3 3 4 5 7 9 9 10 10 11 12 11 9 5
3 3 1 1 2 3 3 2 2 5 2 3 4 5 6 5 5 4 3 2 2 1 0 1 1 2 2 2 2 2 2 3 3 4 3 3 3 3 4 3 4 5 7 5 7 7 5 4 4
3 1 1 1 2 3 3 3 2 2 4 3 5 7 7 6 5 4 3 2 1 1 0 0 1 1 2 2 2 2 2 2 2 3 3 2 2 3 3 3 3 3 2 3 3 3 4 5 4
2 1 1 2 3 2 3 2 2 2 1 3 6 7 7 6 4 3 2 2 2 1 1 1 1 2 1 2 2 2 2 2 2 2 2 2 2 2 3 2 3 3 2 2 3 3 4 4 4
1 2 2 1 2 1 3 1 1 2 2 5 6 6 5 5 5 3 2 2 2 2 1 1 1 2 2 2 1 1 1 1 2 2 2 2 2 2 2 2 2 2 2 2 2 3 3 3 3
2 3 3 1 1 1 3 1 2 3 4 5 5 5 5 4 4 4 4 4 3 2 2 2 2 2 3 2 2 2 1 2 2 1 2 2 2 2 2 2 2 2 2 3 3 3 3 3 3
3 3 1 3 2 2 4 4 5 2 6 5 4 4 4 4 4 4 4 3 3 3 2 2 2 3 3 2 2 2 2 2 1 1 2 2 2 2 2 2 2 1 2 2 2 2 3 3 3
3 1 2 3 2 3 4 5 4 2 6 5 5 5 5 4 3 3 3 4 4 4 3 2 2 3 3 3 2 2 2 2 2 2 2 2 2 3 2 2 2 2 2 2 2 2 2 2 2
3 2 2 3 2 3 3 5 4 2 5 6 5 5 5 5 6 4 4 4 4 4 3 3 3 3 3 3 3 2 3 2 2 2 2 2 2 2 2 2 2 2 2 2 2 2 2 2 2
4 3 2 4 2 3 4 5 6 3 4 5 5 6 6 7 5 3 3 4 4 3 3 3 3 3 3 2 2 2 1 1 2 2 2 2 2 2 2 2 2 2 2 2 2 2 2 2 2
3 2 2 3 1 2 3 5 5 4 6 7 8 8 8 6 3 4 4 4 5 5 4 4 4 4 3 2 2 2 2 1 0 1 2 2 2 2 2 2 1 2 2 2 2 2 1 1 1
3 5 5 3 1 2 1 5 4 3 3 3 5 6 6 8 7 5 5 5 5 5 6 5 4 4 3 3 3 3 2 2 2 2 2 2 2 1 1 2 1 1 2 1 1 1 2 1 1
4 5 5 3 2 2 0 4 6 3 3 4 5 5 6 7 6 5 5 6 6 7 5 5 5 4 3 4 4 4 2 1 1 1 0 1 2 1 1 1 1 1 1 1 0 1 1 2 1
4 1 3 2 2 1 1 2 8 2 4 6 6 6 6 6 6 6 7 7 7 6 5 5 4 4 3 4 4 4 2 1 0 0 1 1 2 1 1 1 1 1 1 1 1 1 1 1 1
4 5 5 5 4 1 3 3 7 4 6 5 6 6 6 6 6 5 5 4 4 4 4 4 4 3 3 4 4 4 4 3 2 1 0 1 1 1 2 1 1 1 1 1 1 1 1 1 1
4 5 3 4 3 5 2 3 9 6 5 5 6 6 5 5 5 5 4 5 5 5 5 4 5 3 3 4 4 4 4 4 4 2 2 1 0 1 1 1 1 1 0 0 1 1 1 1 1
3 7 6 4 4 4 2 5 8 4 3 3 3 4 3 4 5 5 6 6 6 7 6 6 6 5 4 4 4 3 3 2 2 2 2 2 1 1 1 0 1 1 1 1 1 0 0 1 1
5 3 5 6 2 1 5 6 8 2 2 1 0 1 2 3 4 6 6 6 6 7 7 8 7 5 5 5 4 3 3 3 2 2 1 1 1 0 0 0 1 1 1 1 1 0 0 0 1
4 7 5 5 3 3 5 4 5 4 3 2 1 2 3 2 3 4 4 5 6 6 5 5 6 6 5 4 4 4 3 3 2 2 2 1 1 0 1 1 1 1 1 1 1 0 0 0 1
3 3 4 4 4 4 3 7 5 5 4 4 4 3 3 3 3 3 4 4 5 4 5 5 5 4 4 4 4 3 3 2 2 2 2 2 1 1 1 1 1 0 0 1 1 1 0 1 1
3 5 6 4 3 4 3 8 4 3 3 3 3 3 2 2 2 2 2 3 3 4 4 4 4 4 4 4 4 4 3 3 3 2 2 2 2 2 1 1 1 0 0 0 0 1 1 1 2
Wind_Direction
109 98 80 58 55 54 52 7 20 48 54 36 60 79 92 84 90 120 277 74 70 9 348 40 66 65 68 73 71 70 72 73 71 69 68 71 72 73 72 70 69 70 69 68 65 65 67 67 69
116 104 58 59 75 72 13 342 69 81 131 133 74 70 73 61 64 101 3 37 83 53 20 43 67 68 72 75 72 70 71 73 74 71 69 70 71 73 73 71 69 70 71 69 68 69 68 66 66
116 64 76 66 81 127 144 187 132 83 92 100 77 60 76 75 84 138 207 135 83 50 30 42 71 72 75 75 74 72 70 71 74 73 70 70 70 70 68 68 69 70 70 69 68 68 69 68 66
82 48 57 69 76 112 167 183 132 101 57 55 89 71 60 30 137 154 125 116 91 49 28 37 71 72 76 74 73 70 69 70 71 72 69 68 69 68 66 66 68 68 66 66 66 68 67 66 64
61 71 63 60 43 6 33 103 97 83 61 53 81 89 47 5 67 108 116 113 100 60 23 30 66 67 71 73 70 69 70 71 70 68 67 64 65 67 66 66 67 66 65 65 64 62 61 63 65
57 65 77 75 26 3 22 82 99 85 86 79 88 97 71 27 86 116 116 107 95 75 38 28 49 57 60 64 66 65 66 67 67 66 64 62 60 61 63 65 66 64 62 62 60 59 59 63 67
92 84 101 112 76 24 62 101 110 115 110 130 126 107 103 348 155 120 107 102 81 56 42 26 20 25 38 50 60 65 63 63 62 62 61 60 57 56 56 61 64 63 62 61 61 60 60 64 69
111 96 88 94 114 40 61 103 113 121 130 114 116 133 187 207 151 110 89 76 66 50 36 25 16 24 26 28 45 58 61 61 59 57 57 54 50 47 45 49 55 60 61 62 63 62 65 68 70
80 78 118 174 163 170 98 103 79 79 96 77 80 152 180 133 123 108 85 58 53 53 31 27 16 18 24 29 35 43 49 49 51 49 52 50 34 32 35 41 49 58 61 63 65 63 66 66 65
78 107 187 193 172 154 115 113 131 94 78 73 64 63 94 112 125 130 129 135 123 71 15 31 42 31 24 31 38 36 42 39 43 46 43 41 39 34 42 38 45 54 60 61 65 64 61 56 47
99 144 181 145 156 135 120 110 112 124 161 201 173 148 127 120 127 143 156 167 188 188 92 65 84 56 45 40 50 46 42 41 42 47 49 47 44 36 36 32 33 36 45 44 49 51 49 51 52
99 109 142 144 129 119 135 130 112 162 215 206 168 150 141 142 148 160 164 176 173 134 141 55 98 83 62 59 56 57 50 47 40 37 44 55 53 43 39 40 33 35 37 47 47 51 50 53 55
101 103 77 99 100 111 108 118 151 227 244 115 122 134 149 156 162 172 166 159 142 152 160 141 126 113 93 79 64 67 55 56 49 40 37 60 71 60 48 42 40 37 39 55 58 56 55 54 51
136 101 74 69 94 120 124 94 109 238 133 125 139 157 166 169 170 161 162 167 166 174 177 149 140 137 115 100 90 72 58 55 51 43 38 50 70 77 68 54 47 39 36 48 65 68 67 56 52
90 77 26 352 112 145 112 349 243 226 142 147 164 174 174 180 176 179 184 180 177 179 173 157 154 128 120 112 102 80 65 65 60 46 43 51 64 82 86 72 51 42 50 54 58 61 62 59 52
66 66 5 287 171 167 136 251 261 200 155 174 182 186 184 194 198 198 190 179 173 164 161 166 141 124 119 113 102 76 63 62 53 49 52 55 65 75 81 77 57 50 63 65 67 62 59 51 50
44 114 231 285 211 161 167 238 262 170 166 188 195 198 198 204 222 216 197 183 176 170 160 153 135 131 122 107 89 76 67 61 47 49 51 49 58 66 78 74 56 65 72 65 75 61 71 68 53
206 198 224 244 241 158 198 244 263 201 182 200 207 207 208 211 223 210 196 182 170 158 153 148 137 123 112 95 77 61 52 40 38 43 42 49 52 62 76 72 61 69 77 60 61 73 62 71 66
169 174 227 252 230 173 222 248 256 222 199 211 217 216 217 223 228 200 183 169 157 153 155 158 150 140 126 113 108 94 61 21 22 28 42 50 56 64 81 79 72 70 84 86 87 85 73 55 60
170 189 241 290 252 180 239 267 262 213 209 209 210 216 217 221 216 201 185 171 175 176 178 174 171 163 160 146 133 129 123 84 30 11 32 36 48 52 67 81 81 85 90 78 76 85 91 49 40
206 194 206 220 3 32 15 313 285 261 232 226 221 217 213 211 210 202 192 192 185 188 190 187 182 175 167 138 107 85 64 46 31 18 11 6 29 54 77 97 96 91 106 115 103 106 129 127 30
233 223 190 177 127 293 67 290 286 260 266 240 233 223 217 214 207 199 197 197 196 199 187 180 174 173 166 148 141 140 143 164 216 229 301 346 16 43 69 89 97 107 109 116 151 118 138 132 131
209 121 132 148 149 352 342 215 285 300 259 250 236 229 222 208 201 202 202 201 201 193 180 176 167 168 164 158 158 149 150 172 155 56 34 10 2 15 48 74 85 104 120 144 150 125 130 139 158
130 74 61 52 73 285 242 191 276 249 232 249 235 229 221 206 200 203 202 192 194 184 173 167 167 173 169 166 166 166 168 165 152 166 153 341 344 356 19 54 71 90 110 151 157 141 126 139 146
93 91 37 3 8 257 252 204 251 253 237 227 225 225 218 198 191 193 191 189 188 183 182 176 172 179 175 171 177 180 179 176 184 195 197 203 290 320 322 26 48 55 110 127 124 123 134 152 147
163 142 158 195 225 275 291 236 255 262 272 250 225 209 195 190 195 199 202 198 192 190 185 182 187 189 180 181 189 185 176 176 194 200 188 195 218 237 266 31 42 38 66 67 86 106 209 135 157
137 163 164 137 165 265 279 286 300 273 325 350 146 150 189 203 205 209 207 199 191 192 193 190 189 189 188 191 185 181 180 183 197 200 180 185 217 214 98 66 52 32 47 62 84 78 293 132 173
136 143 109 123 159 255 289 279 261 278 272 281 267 238 236 221 222 220 209 202 197 195 191 183 185 190 190 186 187 184 187 190 188 174 176 181 198 170 129 110 82 41 24 35 62 20 315 170 268
111 109 115 123 154 164 254 271 242 239 239 226 240 244 232 217 223 227 219 205 194 184 178 178 181 179 177 180 180 177 182 174 163 170 186 184 179 167 168 177 160 155 360 5 28 326 330 281 289
165 166 149 157 212 181 193 265 281 255 254 229 248 258 242 218 220 232 219 190 176 181 181 180 182 184 186 178 174 180 176 166 171 189 199 185 180 183 182 167 158 227 273 270 235 286 301 254 259